Regional Weather Roundup
Issued by NWS

Home | Current Version | Previous Version | Graphics & Text | Print | Product List | Glossary On
Versions: 1 2 3 4 5 6 7 8 9 10 11 12 13 14 15 16 17 18 19 20 21 22 23 24 25 26 27 28 29 30 31 32 33 34 35 36 37 38 39 40 41 42 43 44 45 46 47 48 49 50
000
ASUS43 KDTX 250301
RWRMI
MICHIGAN HOURLY REGIONAL WEATHER ROUNDUP
NATIONAL WEATHER SERVICE DETROIT/PONTIAC MI
1100 PM EDT MON JUL 24 2017

NOTE: "FAIR" INDICATES FEW OR NO CLOUDS BELOW 12,000 FEET WITH NO
SIGNIFICANT WEATHER AND/OR OBSTRUCTION TO VISIBILITY.

MIZ047>049-052>055-059>063-066>070-074>076-081>083-250400-
SOUTHEAST LOWER MICHIGAN

CITY           SKY/WX    TMP DP  RH WIND       PRES   REMARKS
ADRIAN         CLEAR     59  56  89 CALM      30.12R
ALMA           CLEAR     59  55  88 SW3       30.12R
ANN ARBOR      CLEAR     56  51  84 N5        30.11R
BAD AXE        CLEAR     55  53  95 CALM      30.12R
CARO           CLEAR     55  53  91 CALM      30.12R
DETROIT CITY   CLEAR     65  54  67 N6        30.09R
DETROIT        PTCLDY    65  53  65 N5        30.10R
FLINT          CLEAR     62  53  72 CALM      30.12R
GROSSE ILE     CLEAR     66  53  63 N6        30.08R
HILLSDALE      MOCLDY    55  54  94 CALM      30.12R
HOWELL         CLEAR     61  55  78 NE3       30.11R

CITY           SKY/WX    TMP DP  RH WIND       PRES   REMARKS
JACKSON        CLEAR     60  53  77 CALM      30.12R
LAMBERTVILLE   CLEAR     58  55  89 CALM      30.10R
LANSING        CLEAR     63  55  75 E3        30.12R
LAPEER         FAIR      56  55  97 CALM      30.12R
MASON          CLEAR     61  57  87 CALM      30.12R
MONROE         CLEAR     58  56  92 CALM      30.09R
MT. CLEMENS    CLEAR     61  55  80 N8        30.08R
PONTIAC        CLEAR     63  54  72 N3        30.10R
PORT HOPE        N/A     65  55  70 VRB3      30.09R
PORT HURON     CLEAR     61  55  82 NW5       30.10R
TRI CITIES     CLEAR     64  57  78 SE3       30.13R
MIDLAND        FAIR      59  56  92 CALM      30.12R
TROY           CLEAR     65  53  65 NW3       30.12R
SAGINAW HB     CLEAR     61  52  72 CALM      30.12R
$$
MIZ043>046-050>051-056>058-064>065-071>073-077>080-250400-
SOUTHWEST LOWER MICHIGAN

CITY           SKY/WX    TMP DP  RH WIND       PRES   REMARKS
BATTLE CREEK   CLEAR     63  57  81 CALM      30.11R
BENTON HARBOR  CLEAR     64  60  87 CALM      30.10R
BIG RAPIDS     CLOUDY    64  56  77 CALM      30.11R
COLDWATER      CLEAR     60  60 100 CALM      30.11R
FREMONT        FAIR      64  55  71 CALM      30.10R
HOLLAND        CLEAR     62  58  86 CALM      30.11R
GRAND RAPIDS   CLEAR     66  58  75 CALM      30.10R
IONIA          FAIR      62  56  81 E3        30.10R
KALAMAZOO      CLEAR     63  55  75 CALM      30.11R
LUDINGTON      CLOUDY    60  53  78 N3        30.11R
MARSHALL       CLEAR     59  59  98 CALM      30.11R
MOUNT PLEASANT CLEAR     63  55  75 E3        30.11R
MUSKEGON       CLEAR     67  56  67 N6        30.10R
SOUTH HAVEN    CLEAR     63  62  96 CALM      30.10S
$$
MIZ016>042-250400-
NORTHERN LOWER MICHIGAN

CITY           SKY/WX    TMP DP  RH WIND       PRES   REMARKS
ALPENA         CLEAR     58  56  93 CALM      30.12R
BEAVER ISLAND  CLEAR     55  52  88 CALM      30.14R
BELLAIRE       CLEAR     54  50  85 CALM      30.13R
CADILLAC       CLEAR     61  51  70 CALM      30.13R
CHARLEVOIX     CLEAR     60  55  84 CALM      30.15R
FRANKFORT      CLEAR     56  53  89 CALM      30.12R
GAYLORD        CLEAR     57  49  74 CALM      30.14R
GRAYLING       CLEAR     52  48  86 CALM      30.15R
HARBOR SPRINGS CLEAR     61  48  62 N3        30.12R
HOUGHTON LAKE  CLEAR     56  53  90 CALM      30.14R
MANISTEE       CLEAR     55  53  93 CALM      30.11R
OSCODA         CLEAR     59  53  82 CALM      30.11R
PELLSTON       CLEAR     54  52  93 CALM      30.13R
ROGERS CITY    CLEAR     58  54  85 W5        30.13R
TRAVERSE CITY  CLEAR     62  52  69 CALM      30.11R
$$
MIZ007>008-015-250400-
EASTERN UPPER MICHIGAN

CITY           SKY/WX    TMP DP  RH WIND       PRES   REMARKS
KINROSS        CLEAR     57  51  80 W5        30.13R
MACKINAC ISLAN CLEAR     59  53  82 N6        30.12R
NEWBERRY       CLEAR     53  52  97 CALM      30.13R
S. S. MARIE    CLEAR     59  51  75 SW3       30.11R
MUNISING         N/A     57  55  93 S3        30.11R
$$
MIZ004>006-011>014-085-250400-
CENTRAL UPPER MICHIGAN

CITY           SKY/WX    TMP DP  RH WIND       PRES   REMARKS
MANISTIQUE     CLEAR     55  52  89 CALM      30.12R
ESCANABA       CLEAR     59  57  93 CALM      30.12R
MENOMINEE      CLEAR     62  57  83 CALM      30.12R
SAWYER-GWINN   CLEAR     62  53  72 SE3       30.13R
$$
MIZ001>003-009>011-084-250400-
WESTERN UPPER MICHIGAN

CITY           SKY/WX    TMP DP  RH WIND       PRES   REMARKS
IRON MOUNTAIN  CLEAR     63  54  72 SE5       30.11R
HOUGHTON       CLEAR     59  52  77 E6        30.09R
COPPER HARBOR    N/A     62  51  67 SW7       30.08R
IRONWOOD       CLEAR     59  57  93 CALM      30.09R
$$

ABBREVIATIONS USED IN REMARKS
   TC - TEMPERATURE IN CELSIUS
  WCI - WIND CHILL INDEX
   HX - HEAT INDEX
  VSB - VISIBILITY




USA.gov is the U.S. government's official web portal to all federal, state and local government web resources and services.